Flag for Poland Weather past 2 weeks in Gdansk, Poland

Now
52 °F

Clear.


Feels Like: 48 °F
Forecast: 48 / 64 °F
Wind: 12 mph from Northeast

Location: Gdansk-Rebiechowo


UV Index: 0 (Low)

Visibility: 10 mi


Pressure: 30.12 "Hg

Humidity: 77%

Dew point: 45 °F

Location of GdanskLocation

Historic Weather in Gdansk

°F

Gdansk temperature yesterday

Maximum temperature yesterday: 59 °F (at 3:00 PM)
Minimum temperature yesterday: 41 °F (at 4:30 AM)
Average temperature yesterday: 49 °F

Past Weeks' High & Low Weather Summary

 TemperatureHumidityPressure
High70 °F (Apr 8, 1:30 PM)100% (Apr 8, 5:00 AM)30.39 "Hg (Apr 8, 5:00 AM)
Low28 °F (Apr 17, 4:00 AM)28% (Apr 5, 4:30 PM)29.53 "Hg (Apr 14, 1:00 PM)
Average46 °F72%29.96 "Hg
* Reported Apr 4 9:00 PM — Apr 19 9:00 PM, Gdansk, Weather by CustomWeather, © 2014

Note: Actual official high and low records may vary slightly from our data, if they occured in-between our weather recording intervals... More about our weather records

Advertising

Historic Weather Conditions — Data for Previous 24 hours

 ConditionsComfort  
Time TempWeatherWind HumidityBarometerVisibility
9:00 PM
Apr 19
52 °FClear.13 mph77%30.12 "Hg10 mi
8:30 PM54 °FPassing clouds.13 mph72%30.12 "HgN/A
8:00 PM54 °FSunny.12 mph77%30.12 "Hg10 mi
7:30 PM55 °FPassing clouds.13 mph72%30.12 "HgN/A
7:00 PM57 °FSunny.10 mph67%30.09 "Hg10 mi
6:30 PM59 °FSunny.10 mph63%30.09 "Hg10 mi
6:00 PM61 °FPassing clouds.12 mph63%30.09 "HgN/A
5:30 PM63 °FPassing clouds.12 mph59%30.12 "HgN/A
5:00 PM63 °FPassing clouds.12 mph59%30.12 "HgN/A
4:30 PM63 °FSunny.10 mph59%30.12 "Hg10 mi
4:00 PM63 °FSunny.12 mph64%30.12 "Hg10 mi
3:30 PM63 °FSunny.12 mph59%30.12 "Hg10 mi
3:00 PM61 °FSunny.13 mph68%30.12 "Hg10 mi
2:30 PM63 °FPassing clouds.9 mph64%30.12 "HgN/A
2:00 PM63 °FPassing clouds.9 mph59%30.15 "HgN/A
1:30 PM61 °FPassing clouds.8 mph63%30.15 "HgN/A
1:00 PM63 °FPassing clouds.7 mph59%30.15 "HgN/A
12:30 PM63 °FPassing clouds.9 mph59%30.15 "HgN/A
12:00 PM61 °FPassing clouds.6 mph63%30.15 "HgN/A
11:30 AM57 °FPassing clouds.7 mph67%30.15 "HgN/A
11:00 AM55 °FPassing clouds.8 mph72%30.15 "HgN/A
10:30 AM55 °FPassing clouds.8 mph72%30.12 "HgN/A
10:00 AM55 °FPassing clouds.7 mph72%30.15 "HgN/A
9:30 AM55 °FPassing clouds.6 mph72%30.15 "HgN/A
9:00 AM54 °FPassing clouds.7 mph77%30.12 "HgN/A
8:30 AM54 °FPassing clouds.6 mph72%30.12 "HgN/A
8:00 AM52 °FPassing clouds.3 mph77%30.12 "HgN/A
7:30 AM50 °FPassing clouds.6 mph82%30.12 "HgN/A
7:00 AM48 °FPassing clouds.7 mph87%30.12 "HgN/A
6:30 AM48 °FPassing clouds.5 mph82%30.09 "HgN/A
6:00 AM46 °FPassing clouds.5 mph87%30.09 "HgN/A
5:30 AM46 °FClear.9 mph87%30.09 "Hg10 mi
5:00 AM46 °FPassing clouds.9 mph87%30.09 "HgN/A
4:30 AM46 °FPassing clouds.7 mph87%30.09 "HgN/A
4:00 AM46 °FClear.5 mph82%30.09 "Hg10 mi
3:30 AM46 °FClear.5 mph82%30.09 "Hg10 mi
3:00 AM48 °FPassing clouds.5 mph76%30.09 "HgN/A
2:30 AM48 °FPassing clouds.7 mph76%30.07 "HgN/A
2:00 AM48 °FPassing clouds.8 mph76%30.07 "HgN/A
1:30 AM48 °FPassing clouds.6 mph82%30.07 "HgN/A
1:00 AM48 °FClear.8 mph82%30.07 "Hg10 mi
12:30 AM48 °FClear.7 mph82%30.04 "Hg10 mi
12:00 AM46 °FClear.5 mph82%30.04 "Hg10 mi
11:30 PM
Apr 18
46 °FClear.3 mph82%30.04 "Hg10 mi
11:00 PM46 °FClear.5 mph76%30.01 "Hg10 mi
10:30 PM46 °FClear.5 mph76%30.01 "Hg10 mi
10:00 PM48 °FClear.6 mph66%30.01 "Hg10 mi
Weather by CustomWeather, © 2014

See weather overview